Glens Falls, NY

10:34 PM EDT on October 18, 2019 (GMT -0400)
Bennett Memorial

Weather History for KGFL - September, 2019

Change the Weather History Date:

Monday, September 16, 2019

  Actual Average Record
Temperature  
Mean Temperature 57 °F 58 °F  
Max Temperature 71 °F 71 °F 89 °F (1942)
Min Temperature 43 °F 46 °F 31 °F (1913)
Degree Days  
Heating Degree Days 8 7  
Month to date heating degree days 86 79  
Since 1 July heating degree days 114 145  
Cooling Degree Days 0 1  
Month to date cooling degree days 12 21  
Year to date cooling degree days 407 348  
Growing Degree Days 8 (Base 50)    
Moisture  
Dew Point 47 °F    
Average Humidity 67    
Maximum Humidity 93    
Minimum Humidity 40    
Precipitation  
Precipitation 0.00 in 0.11 in 3.55 in (1999)
Month to date precipitation 1.06 1.69  
Year to date precipitation 29.85 27.50  
Sea Level Pressure  
Sea Level Pressure 30.10 in    
Wind  
Wind Speed 2 mph (North)    
Max Wind Speed 14 mph    
Max Gust Speed 19 mph    
Visibility 9 miles    
Events      
T = Trace of Precipitation, MM = Missing Value Source: NWS Daily Summary

Daily Weather History Graph

Daily Weather History Graph

Search for Another Location

Airport or City:

Astronomy

Sep. 16, 2019 Rise Set
Actual Time 6:34 AM EDT 7:03 PM EDT
Civil Twilight 6:06 AM EDT 7:31 PM EDT
Nautical Twilight 5:32 AM EDT 8:05 PM EDT
Astronomical Twilight 4:57 AM EDT 8:40 PM EDT
Moon 8:33 PM EDT (9/16) 8:41 AM EDT (9/16)
Length of Visible Light 13h 25m
Length of Day
12h 28m
Waning Gibbous, 94% of the Moon is Illuminated
Sep 16
Waning Gibbous
Sep 21
Last Quarter
Sep 28
New
Oct 5
First Quarter
Oct 13
Full

Hourly Weather History & Observations

Time (EDT) Temp. Dew Point Humidity Pressure Visibility Wind Dir Wind Speed Gust Speed Precip Events Conditions
12:53 AM 60.1 °F 53.1 °F 78% 30.08 in 10.0 mi NW 4.6 mph - N/A   Mostly Cloudy
1:53 AM 55.9 °F 51.1 °F 84% 30.09 in 10.0 mi Calm Calm - N/A   Overcast
2:53 AM 55.9 °F 50.0 °F 80% 30.09 in 10.0 mi NNE 4.6 mph - N/A   Mostly Cloudy
3:53 AM 52.0 °F 48.9 °F 89% 30.10 in 10.0 mi Calm Calm - N/A   Clear
4:53 AM 50.0 °F 46.9 °F 89% 30.11 in 10.0 mi Calm Calm - N/A   Clear
5:53 AM 46.0 °F 45.0 °F 96% 30.11 in 2.5 mi Calm Calm - N/A   Clear
6:01 AM 46.9 °F 45.0 °F 93% 30.11 in 10.0 mi Calm Calm - N/A   Clear
6:53 AM 46.9 °F 44.1 °F 90% 30.12 in 10.0 mi North 4.6 mph - N/A   Clear
7:53 AM 51.1 °F 48.0 °F 89% 30.13 in 10.0 mi Calm Calm - N/A   Clear
8:53 AM 57.9 °F 48.0 °F 70% 30.14 in 10.0 mi Calm Calm - N/A   Clear
9:53 AM 61.0 °F 46.9 °F 60% 30.13 in 10.0 mi Calm Calm - N/A   Clear
10:53 AM 61.0 °F 46.0 °F 58% 30.13 in 10.0 mi Calm Calm - N/A   Mostly Cloudy
11:53 AM 63.0 °F 46.0 °F 54% 30.11 in 10.0 mi South 5.8 mph - N/A   Mostly Cloudy
12:53 PM 66.0 °F 44.1 °F 45% 30.09 in 10.0 mi North 10.4 mph - N/A   Clear
1:53 PM 68.0 °F 44.1 °F 42% 30.07 in 10.0 mi North 12.7 mph - N/A   Clear
2:53 PM 70.0 °F 44.1 °F 39% 30.05 in 10.0 mi North 8.1 mph - N/A   Clear
4:53 PM 69.1 °F 48.0 °F 47% 30.04 in 10.0 mi ESE 4.6 mph - N/A   Clear
5:53 PM 68.0 °F 48.9 °F 50% 30.05 in 10.0 mi Calm Calm - N/A   Clear
6:53 PM 62.1 °F 52.0 °F 70% 30.06 in 10.0 mi Calm Calm - N/A   Clear
7:53 PM 54.0 °F 50.0 °F 86% 30.07 in 10.0 mi Calm Calm - N/A   Clear
8:53 PM 52.0 °F 48.9 °F 89% 30.09 in 10.0 mi Calm Calm - N/A   Clear
9:53 PM 50.0 °F 46.9 °F 89% 30.10 in 10.0 mi Calm Calm - N/A   Clear
10:53 PM 46.9 °F 45.0 °F 93% 30.11 in 2.5 mi Calm Calm - N/A   Clear
11:07 PM 48.0 °F 46.9 °F 96% 30.11 in 10.0 mi WNW 3.5 mph - N/A   Clear
11:53 PM 48.0 °F 46.0 °F 93% 30.12 in 9.0 mi Calm Calm - N/A   Clear